Weather Roundup
Issued by NWS

Home | Current Version | Previous Version | Graphics & Text | Print | Product List | Glossary Off
Versions: 1 2 3 4 5 6 7 8 9 10 11 12 13 14 15 16 17 18 19 20 21 22 23 24 25 26 27 28 29 30 31 32 33 34 35 36 37 38 39 40 41 42 43 44 45 46 47 48 49 50

000
NZUS93 KARX 032059
HRRWXR

CURRENT HOURLY OBSERVATIONS ACROSS
MUCH OF THE UPPER MISSISSIPPI VALLEY
NATIONAL WEATHER SERVICE LA CROSSE WI
300 PM CST TUE MAR 03 2015


...SOUTHEAST MINNESOTA...


CITY           SKY/WX    TMP DP  RH WIND       PRES   REMARKS
ROCHESTER      CLOUDY    27  22  81 NW20      29.67R WCI  13
ROCHESTER/MAYO CLOUDY    28  21  75 W20G28    29.67R WCI  15
WINONA         CLOUDY    32  25  74 NW17G24   29.68R WCI  21
AUSTIN         CLOUDY    27  21  80 NW16G25   29.71R WCI  14
ALBERT LEA     CLOUDY    25  19  80 NW16G26   29.73R HAZE    WCI  12
DODGE CENTER   CLOUDY    27  23  86 NW18      29.68R WCI  13
PRESTON        CLOUDY    27  22  83 NW20      29.67S WCI  13
OWATONNA       CLOUDY    25  19  80 NW24G31   29.72R HAZE    WCI   9
FARIBAULT      CLOUDY    27  18  69 W17G28    29.73R WCI  14
$$

...ELSEWHERE IN MINNESOTA...


CITY           SKY/WX    TMP DP  RH WIND       PRES   REMARKS
MINNEAPOLIS    MOSUNNY   27  15  61 NW21G35   29.72R WCI  13
INTNL FALLS    MOSUNNY   13  -3  49 W23G31    29.66R WCI  -6
DULUTH         LGT SNOW  22  10  60 W20G35    29.57R BLWGSNOWWCI   7
RED WING       CLOUDY    30  19  64 NW14G21   29.68R WCI  20
REDWOOD FALLS  FLURRIES  17   7  64 NW23G36   29.86R WCI  -1
MANKATO        CLOUDY   N/A N/A N/A NW30G40   29.76R
FAIRMONT       CLOUDY    23  12  63 W28       29.80R WCI   6
$$

...SOUTHWEST WISCONSIN...


CITY           SKY/WX    TMP DP  RH WIND       PRES   REMARKS
LA CROSSE      CLOUDY    33  24  69 W13       29.66R WCI  24
PRAIRIE DU CHI CLOUDY    32  24  71 W15       29.68R WCI  21
BOSCOBEL       CLOUDY    32  24  72 W9        29.68R WCI  24
LONE ROCK      NOT AVBL
PLATTEVILLE    CLOUDY    32  28  86 W10G18    29.65R WCI  23
FORT MC COY    CLOUDY    30  23  75 W9        29.64S WCI  22
VIROQUA        CLOUDY    29  24  82 W12G20    29.62S WCI  19
WIS DELLS      NOT AVBL
$$

...ELSEWHERE IN WISCONSIN...


CITY           SKY/WX    TMP DP  RH WIND       PRES   REMARKS
MILWAUKEE      CLOUDY    33  26  75 W12       29.60R WCI  24
MADISON        CLOUDY    31  24  75 NW9       29.63R WCI  23
GREEN BAY      CLOUDY    28  23  81 W15       29.55S WCI  16
EAU CLAIRE     CLOUDY    29  19  66 W13       29.62R WCI  19
BLACK RVR FLS  CLOUDY    31  22  68 W14G21    29.63R WCI  20
MEDFORD        CLOUDY    26  19  74 W16       29.54S WCI  13
WAUSAU         CLOUDY    26  18  71 W18       29.54R WCI  13
WIS RAPIDS     CLOUDY    28  20  71 W14G21    29.61R WCI  17
MARSHFIELD     CLOUDY    28  19  69 NW15      29.58R WCI  16
RICE LAKE      FLURRIES  28  20  71 W15       29.63R WCI  17
$$

...NORTHEAST IOWA...


CITY           SKY/WX    TMP DP  RH WIND       PRES   REMARKS
DECORAH        CLOUDY    30  25  80 NW16G24   29.66S WCI  19
MASON CITY     NOT AVBL
CHARLES CITY   CLOUDY    30  27  86 NW22      29.71R WCI  17
OELWEIN        CLOUDY    30  25  80 NW18G25   29.70R WCI  18
$$

...ELSEWHERE IN IOWA...


CITY           SKY/WX    TMP DP  RH WIND       PRES   REMARKS
DES MOINES     CLOUDY    35  26  69 NW12      29.79R WCI  27
IOWA CITY      CLOUDY    34  28  79 NW17G24   29.75R WCI  23
FORT DODGE     CLOUDY    28  19  69 NW15G22   29.82R WCI  17
$$

...NORTHERN ILLINOIS...


CITY           SKY/WX    TMP DP  RH WIND       PRES   REMARKS
CHICAGO-OHARE  CLOUDY    34  30  85 W17G28    29.65R WCI  23
CHICAGO-MIDWAY DRIZZLE   36  34  92 W12G26    29.66R WCI  28
MOLINE         CLOUDY    35  30  82 W13       29.70S WCI  26
ROCKFORD       CLOUDY    33  29  85 W10       29.66R WCI  25
PEORIA         CLOUDY    39  34  82 W15G23    29.74R WCI  31
$$

NOTE: "FAIR" INDICATES FEW OR NO CLOUDS BELOW 12,000 FEET WITH NO
SIGNIFICANT WEATHER AND/OR OBSTRUCTIONS TO VISIBILITY. WIND
SPEEDS ARE IN MILES-PER-HOUR.



USA.gov is the U.S. government's official web portal to all federal, state and local government web resources and services.